Voltar ao catálogo

COSMOS 2251 DEB

AtivoVLEO
NORAD 33795·DEBRIS·🇷🇺 Russia

Lançado Jun 16, 1993 de Plesetsk Cosmodrome

Loading…

Próximas Passagens (próximas 24 horas)

TLE

AtualizadoSource: Space-Track

Época: Sep 14, 2026, 08:15 UTC

1 33795U 93036AL  26257.34416392  .00021237  00000-0  10129-2 0  9992
2 33795  74.0439 225.6151 0030151 241.7739 279.7954 15.18617330941889

Acompanhe COSMOS 2251 DEB em tempo real com AllMySat

Download on the App Store